Beatrice, NE

3:15 PM CST on December 14, 2019 (GMT -0600)
Beatrice Municipal

Weather History for KBIE - October, 2019

Change the Weather History Date:

Tuesday, October 29, 2019

  Actual Average Record
Temperature  
Mean Temperature 28 °F -  
Max Temperature 34 °F 60 °F 80 °F (2016)
Min Temperature 21 °F 37 °F 21 °F (2019)
Degree Days  
Heating Degree Days 38    
Moisture  
Dew Point 27 °F    
Average Humidity 93    
Maximum Humidity 100    
Minimum Humidity 78    
Precipitation  
Precipitation 0.00 in - - ()
Sea Level Pressure  
Sea Level Pressure 30.26 in    
Wind  
Wind Speed 2 mph (North)    
Max Wind Speed 10 mph    
Max Gust Speed -    
Visibility 5 miles    
Events Fog , Snow    
Averages and records for this station are not official NWS values.
T = Trace of Precipitation, MM = Missing Value Source: NWS Daily Summary

Daily Weather History Graph

Daily Weather History Graph

Search for Another Location

Airport or City:

Astronomy

Oct. 29, 2019 Rise Set
Actual Time 7:52 AM CDT 6:27 PM CDT
Civil Twilight 7:24 AM CDT 6:55 PM CDT
Nautical Twilight 6:52 AM CDT 7:27 PM CDT
Astronomical Twilight 6:21 AM CDT 7:59 PM CDT
Moon 9:28 AM CDT (10/29) 7:52 PM CDT (10/29)
Length of Visible Light 11h 31m
Length of Day
10h 34m
Waxing Crescent, 3% of the Moon is Illuminated
Oct 29
Waxing Crescent
Nov 4
First Quarter
Nov 12
Full
Nov 19
Last Quarter
Nov 26
New

Hourly Weather History & Observations

Time (CDT) Temp. Windchill Dew Point Humidity Pressure Visibility Wind Dir Wind Speed Gust Speed Precip Events Conditions
12:15 AM 25.5 °F - 24.8 °F 97% 30.18 in 0.5 mi Calm Calm - N/A Fog Light Freezing Fog
12:35 AM 24.3 °F 19.9 °F 23.7 °F 98% 30.18 in 0.2 mi WNW 3.5 mph - N/A Fog Light Freezing Fog
12:55 AM 24.1 °F 19.7 °F 23.4 °F 97% 30.18 in 0.2 mi WNW 3.5 mph - N/A Fog Light Freezing Fog
1:15 AM 24.8 °F - 24.3 °F 98% 30.18 in 0.2 mi Calm Calm - N/A Fog Light Freezing Fog
1:35 AM 24.3 °F 19.9 °F 23.5 °F 97% 30.19 in 0.2 mi West 3.5 mph - N/A Fog Light Freezing Fog
1:55 AM 25.2 °F - 24.4 °F 97% 30.19 in 1.0 mi Calm Calm - N/A   Overcast
2:15 AM 24.6 °F - 23.9 °F 97% 30.19 in 2.0 mi Calm Calm - N/A   Overcast
2:30 AM 24.6 °F - 23.9 °F 97% 30.20 in 0.5 mi Calm Calm - N/A Fog Light Freezing Fog
2:55 AM 24.8 °F - 23.9 °F 96% 30.21 in 0.2 mi Calm Calm - N/A Fog Light Freezing Fog
3:15 AM 25.2 °F - 24.4 °F 97% 30.22 in 0.5 mi Calm Calm - N/A Fog Light Freezing Fog
3:35 AM 24.8 °F - 23.9 °F 96% 30.21 in 3.0 mi Calm Calm - N/A   Overcast
3:55 AM 24.8 °F - 23.9 °F 96% 30.21 in 1.0 mi Calm Calm - N/A   Overcast
4:15 AM 24.6 °F - 23.9 °F 97% 30.19 in 0.2 mi Calm Calm - N/A Fog Light Freezing Fog
4:35 AM 24.8 °F - 23.9 °F 96% 30.19 in 0.2 mi Calm Calm - N/A Fog Light Freezing Fog
4:55 AM 24.3 °F - 23.5 °F 97% 30.19 in 0.2 mi Calm Calm - N/A Fog Light Freezing Fog
5:35 AM 23.9 °F - 23.0 °F 96% 30.21 in 0.2 mi Calm Calm - N/A Fog Light Freezing Fog
5:55 AM 23.5 °F - 22.6 °F 96% 30.22 in 0.2 mi Calm Calm - N/A Fog Light Freezing Fog
6:15 AM 23.2 °F - 22.3 °F 96% 30.23 in 0.2 mi Calm Calm - N/A Fog Light Freezing Fog
6:35 AM 22.8 °F - 21.7 °F 96% 30.23 in 0.5 mi Calm Calm - N/A Fog Light Freezing Fog
6:55 AM 22.5 °F - 21.2 °F 95% 30.23 in 0.5 mi Calm Calm - N/A Fog Light Freezing Fog
7:15 AM 21.9 °F - 20.8 °F 96% 30.25 in 0.5 mi Calm Calm - N/A Fog Light Freezing Fog
7:35 AM 21.2 °F - 20.3 °F 96% 30.24 in 0.2 mi Calm Calm - N/A Fog Light Freezing Fog
7:55 AM 21.6 °F - 20.3 °F 95% 30.25 in 0.2 mi Calm Calm - N/A Fog Light Freezing Fog
8:15 AM 21.7 °F - 20.7 °F 96% 30.26 in 0.2 mi Calm Calm - N/A Fog Light Freezing Fog
8:35 AM 22.1 °F - 21.0 °F 96% 30.26 in 0.2 mi Calm Calm - N/A Fog Light Freezing Fog
8:55 AM 22.1 °F - 21.2 °F 96% 30.26 in 0.5 mi Calm Calm - N/A Snow Light Snow
9:15 AM 22.8 °F - 21.7 °F 96% 30.27 in 5.0 mi Calm Calm - N/A   Overcast
9:35 AM 24.1 °F - 23.2 °F 96% 30.29 in 0.5 mi Calm Calm - N/A Fog Light Freezing Fog
9:55 AM 24.3 °F 19.9 °F 23.4 °F 96% 30.29 in 0.5 mi South 3.5 mph - N/A Fog Light Freezing Fog
10:15 AM 23.9 °F - 23.0 °F 96% 30.29 in 0.5 mi Calm Calm - N/A Fog Light Freezing Fog
10:35 AM 24.8 °F - 23.9 °F 96% 30.29 in 0.8 mi Calm Calm - N/A   Overcast
10:55 AM 25.7 °F - 25.2 °F 98% 30.29 in 2.0 mi Calm Calm - N/A   Overcast
11:15 AM 27.3 °F - 26.8 °F 98% 30.29 in 1.5 mi Calm Calm - N/A   Overcast
11:35 AM 28.2 °F - 27.7 °F 98% 30.30 in 2.0 mi Calm Calm - N/A   Overcast
11:55 AM 28.4 °F - 28.0 °F 99% 30.30 in 4.0 mi Calm Calm - N/A   Overcast
12:15 PM 29.3 °F - 28.9 °F 99% 30.30 in 4.0 mi Calm Calm - N/A   Overcast
12:35 PM 30.0 °F - 29.7 °F 99% 30.29 in 7.0 mi Calm Calm - N/A   Overcast
12:55 PM 31.1 °F - 30.9 °F 99% 30.29 in 7.0 mi Calm Calm - N/A   Overcast
1:15 PM 31.3 °F - 31.3 °F 100% 30.28 in 10.0 mi Calm Calm - N/A   Overcast
1:35 PM 32.0 °F - 31.8 °F 99% 30.28 in 10.0 mi Calm Calm - N/A   Overcast
1:55 PM 32.0 °F 27.5 °F 32.0 °F 100% 30.27 in 10.0 mi North 4.6 mph - N/A   Overcast
2:15 PM 32.0 °F 28.7 °F 32.0 °F 100% 30.27 in 10.0 mi North 3.5 mph - N/A   Overcast
2:55 PM 32.7 °F - 32.5 °F 99% 30.27 in 10.0 mi Calm Calm - N/A   Overcast
3:15 PM 33.3 °F 28.9 °F 32.2 °F 96% 30.27 in 10.0 mi North 4.6 mph - N/A   Overcast
3:35 PM 33.8 °F 27.7 °F 32.0 °F 93% 30.26 in 10.0 mi North 6.9 mph - N/A   Overcast
3:55 PM 34.2 °F - 31.1 °F 89% 30.27 in 10.0 mi Calm Calm - N/A   Overcast
4:15 PM 34.7 °F 31.8 °F 31.1 °F 87% 30.27 in 10.0 mi North 3.5 mph - N/A   Overcast
4:35 PM 34.7 °F 31.8 °F 30.2 °F 84% 30.27 in 10.0 mi NNE 3.5 mph - N/A   Overcast
4:55 PM 34.7 °F 28.8 °F 30.0 °F 83% 30.28 in 10.0 mi North 6.9 mph - N/A   Overcast
5:15 PM 34.7 °F 29.6 °F 29.8 °F 82% 30.28 in 10.0 mi North 5.8 mph - N/A   Overcast
5:35 PM 34.7 °F 31.8 °F 30.0 °F 83% 30.28 in 10.0 mi North 3.5 mph - N/A   Overcast
5:55 PM 34.5 °F 31.6 °F 29.7 °F 82% 30.28 in 10.0 mi NNE 3.5 mph - N/A   Overcast
6:15 PM 34.3 °F 30.2 °F 29.8 °F 84% 30.28 in 10.0 mi NNE 4.6 mph - N/A   Overcast
6:35 PM 34.3 °F 30.2 °F 30.2 °F 85% 30.28 in 10.0 mi NNE 4.6 mph - N/A   Overcast
6:55 PM 34.2 °F - 30.7 °F 87% 30.28 in 10.0 mi Calm Calm - N/A   Overcast
7:35 PM 34.5 °F 30.4 °F 30.2 °F 84% 30.29 in 10.0 mi NNE 4.6 mph - N/A   Overcast
7:55 PM 34.5 °F 31.6 °F 30.2 °F 84% 30.30 in 10.0 mi NNE 3.5 mph - N/A   Overcast
8:15 PM 34.7 °F 31.8 °F 30.0 °F 83% 30.30 in 10.0 mi North 3.5 mph - N/A   Overcast
8:35 PM 34.7 °F 31.8 °F 30.2 °F 84% 30.30 in 10.0 mi NNE 3.5 mph - N/A   Overcast
8:55 PM 34.3 °F - 31.1 °F 88% 30.30 in 10.0 mi Calm Calm - N/A   Overcast
9:15 PM 34.3 °F 31.4 °F 30.9 °F 87% 30.30 in 10.0 mi NNE 3.5 mph - N/A   Overcast
9:35 PM 34.7 °F - 30.6 °F 85% 30.31 in 10.0 mi Calm Calm - N/A   Overcast
9:55 PM 33.8 °F 30.8 °F 31.8 °F 92% 30.32 in 10.0 mi North 3.5 mph - N/A   Overcast
10:15 PM 34.0 °F 28.0 °F 31.6 °F 91% 30.32 in 10.0 mi North 6.9 mph - N/A   Overcast
10:35 PM 34.5 °F 26.7 °F 30.7 °F 86% 30.32 in 10.0 mi North 10.4 mph - N/A   Overcast
10:55 PM 34.2 °F 26.8 °F 28.0 °F 78% 30.33 in 10.0 mi North 9.2 mph - N/A   Overcast
11:15 PM 33.8 °F 25.8 °F 28.2 °F 80% 30.32 in 10.0 mi North 10.4 mph - N/A   Overcast
11:35 PM 33.4 °F 25.9 °F 27.9 °F 80% 30.32 in 10.0 mi North 9.2 mph - N/A   Overcast
11:55 PM 33.3 °F 25.7 °F 27.5 °F 79% 30.32 in 10.0 mi North 9.2 mph - N/A   Overcast